Location: ?
(35.4214°N, 139.3011°E)
Time: 22:34:55
(UTC+00:00)

CZ-4 R/B - Pass Details

Date: 14 July 2020
Orbit: 533 x 596 km, 97.8° (Epoch: 10 August)

Event Time Altitude Azimuth Distance (km) Brightness Sun altitude
Rises 10:22:33 0° 209° (SSW) 2,704 4.8 -5.1°
Reaches altitude 10° 10:25:43 10° 238° (WSW) 1,804 4.3 -5.6°
Maximum altitude 10:27:34 13° 266° (W) 1,617 4.6 -5.9°
Drops below altitude 10° 10:29:24 10° 295° (WNW) 1,799 5.7 -6.3°
Sets 10:32:34 0° 324° (NW) 2,689 6.4 -6.8°
